Retour au catalogue

CZ-4 DEB

ActifSSO
NORAD 35383·DEBRIS·🇨🇳 China

Lancé Oct 21, 2003 depuis Taiyuan Satellite Launch Center

Loading…

Prochains Passages (prochaines 24 heures)

TLE

FraisSource: Space-Track

Époque: Sep 11, 2026, 18:02 UTC

1 35383U 03049K   26254.75168543  .00000162  00000-0  45343-4 0  9998
2 35383  98.6538 265.5446 0047648 237.0835 122.5775 14.58919870724938

Suivez CZ-4 DEB en temps réel avec AllMySat

Download on the App Store